| time (UTC) | temp F | wind direction | speed MPH | gust MPH | rain 1hr in | rain 24hr in | rain mn in | humidity % | barometer mb |
| 20260504204602 | 81 | 79 | 9.0 | 15.0 | 0.00 | 0.00 | 0.00 | 78 | 1011.6 |
| 20260504204055 | 81 | 76 | 7.0 | 16.0 | 0.00 | 0.00 | 0.00 | 78 | 1011.5 |
| 20260504203557 | 81 | 78 | 8.0 | 17.0 | 0.00 | 0.00 | 0.00 | 78 | 1011.4 |
| 20260504203054 | 81 | 78 | 8.0 | 17.0 | 0.00 | 0.00 | 0.00 | 78 | 1011.4 |
| 20260504202557 | 81 | 78 | 6.0 | 16.0 | 0.00 | 0.00 | 0.00 | 78 | 1011.2 |
| 20260504202059 | 81 | 75 | 9.0 | 22.0 | 0.00 | 0.00 | 0.00 | 79 | 1011.2 |
| 20260504201607 | 81 | 59 | 8.0 | 22.0 | 0.00 | 0.00 | 0.00 | 79 | 1011.2 |
| 20260504201057 | 81 | 94 | 7.0 | 16.0 | 0.00 | 0.00 | 0.00 | 79 | 1011.1 |
| 20260504200555 | 81 | 80 | 8.0 | 17.0 | 0.00 | 0.00 | 0.00 | 79 | 1011.0 |
| 20260504200100 | 81 | 82 | 8.0 | 17.0 | 0.00 | 0.00 | 0.00 | 79 | 1011.0 |
| 20260504195555 | 81 | 65 | 9.0 | 16.0 | 0.00 | 0.00 | 0.00 | 80 | 1011.0 |
| 20260504195058 | 81 | 89 | 8.0 | 16.0 | 0.00 | 0.00 | 0.00 | 80 | 1011.0 |
| 20260504194608 | 81 | 90 | 9.0 | 16.0 | 0.00 | 0.00 | 0.00 | 80 | 1011.0 |
| 20260504194055 | 81 | 83 | 7.0 | 14.0 | 0.00 | 0.00 | 0.00 | 80 | 1010.9 |
| 20260504193555 | 81 | 82 | 8.0 | 14.0 | 0.00 | 0.00 | 0.00 | 80 | 1010.8 |
| 20260504193056 | 81 | 74 | 7.0 | 14.0 | 0.00 | 0.00 | 0.00 | 81 | 1010.8 |
| 20260504192555 | 81 | 48 | 5.0 | 10.0 | 0.00 | 0.00 | 0.00 | 82 | 1010.8 |
| 20260504192057 | 81 | 92 | 5.0 | 10.0 | 0.00 | 0.00 | 0.00 | 82 | 1010.8 |
| 20260504191558 | 81 | 56 | 5.0 | 11.0 | 0.00 | 0.00 | 0.00 | 82 | 1010.7 |
| 20260504191057 | 81 | 76 | 5.0 | 11.0 | 0.00 | 0.00 | 0.00 | 82 | 1010.8 |
| 20260504190600 | 81 | 88 | 3.0 | 11.0 | 0.00 | 0.00 | 0.00 | 82 | 1010.8 |
| 20260504190125 | 81 | 78 | 4.0 | 10.0 | 0.00 | 0.00 | 0.00 | 82 | 1010.7 |
| 20260504185556 | 81 | 88 | 6.0 | 12.0 | 0.00 | 0.00 | 0.00 | 82 | 1010.4 |
| 20260504185100 | 81 | 102 | 4.0 | 12.0 | 0.00 | 0.00 | 0.00 | 82 | 1010.5 |
| 20260504184559 | 81 | 74 | 7.0 | 12.0 | 0.00 | 0.00 | 0.00 | 82 | 1010.4 |
| 20260504184102 | 81 | 84 | 4.0 | 15.0 | 0.00 | 0.00 | 0.00 | 82 | 1010.4 |
| 20260504183600 | 81 | 58 | 6.0 | 15.0 | 0.00 | 0.00 | 0.00 | 82 | 1010.3 |
| 20260504183058 | 81 | 76 | 9.0 | 15.0 | 0.00 | 0.00 | 0.00 | 82 | 1010.4 |
| 20260504182601 | 81 | 94 | 9.0 | 14.0 | 0.00 | 0.00 | 0.00 | 82 | 1010.4 |
| 20260504182059 | 81 | 94 | 4.0 | 11.0 | 0.00 | 0.00 | 0.00 | 82 | 1010.5 |
| 20260504181604 | 80 | 95 | 5.0 | 12.0 | 0.00 | 0.00 | 0.00 | 82 | 1010.4 |
| 20260504181059 | 80 | 94 | 6.0 | 12.0 | 0.00 | 0.00 | 0.00 | 82 | 1010.3 |
| 20260504180600 | 81 | 82 | 7.0 | 12.0 | 0.00 | 0.00 | 0.00 | 82 | 1010.3 |
| 20260504180155 | 81 | 80 | 4.0 | 12.0 | 0.00 | 0.00 | 0.00 | 82 | 1010.4 |
| 20260504175559 | 81 | 81 | 6.0 | 13.0 | 0.00 | 0.00 | 0.00 | 81 | 1010.4 |
| 20260504175101 | 81 | 103 | 7.0 | 13.0 | 0.00 | 0.00 | 0.00 | 81 | 1010.3 |
| 20260504174602 | 81 | 126 | 7.0 | 17.0 | 0.00 | 0.00 | 0.00 | 80 | 1010.4 |
| 20260504174100 | 81 | 92 | 8.0 | 17.0 | 0.00 | 0.00 | 0.00 | 79 | 1010.5 |
| 20260504173559 | 82 | 86 | 7.0 | 13.0 | 0.00 | 0.00 | 0.00 | 79 | 1010.6 |
| 20260504173125 | 82 | 88 | 5.0 | 13.0 | 0.00 | 0.00 | 0.00 | 79 | 1010.6 |
| 20260504172559 | 81 | 86 | 9.0 | 13.0 | 0.00 | 0.00 | 0.00 | 79 | 1010.5 |
| 20260504172059 | 82 | 99 | 5.0 | 11.0 | 0.00 | 0.00 | 0.00 | 79 | 1010.6 |
| 20260504171602 | 82 | 77 | 6.0 | 11.0 | 0.00 | 0.00 | 0.00 | 79 | 1010.7 |
| 20260504171100 | 82 | 90 | 7.0 | 12.0 | 0.00 | 0.00 | 0.00 | 78 | 1010.7 |
| 20260504170559 | 82 | 80 | 7.0 | 15.0 | 0.00 | 0.00 | 0.00 | 78 | 1010.8 |
| 20260504151058 | 82 | 78 | 9.0 | 14.0 | 0.00 | 0.03 | 0.00 | 78 | 1011.5 |
| 20260504150556 | 82 | 103 | 5.0 | 13.0 | 0.00 | 0.03 | 0.00 | 79 | 1011.5 |
| 20260504141058 | 82 | 82 | 8.0 | 19.0 | 0.00 | 0.03 | 0.00 | 80 | 1012.1 |
| 20260504140557 | 82 | 66 | 6.0 | 14.0 | 0.00 | 0.03 | 0.00 | 80 | 1012.2 |
| 20260504140119 | 82 | 59 | 8.0 | 18.0 | 0.00 | 0.03 | 0.00 | 80 | 1012.2 |
| 20260504130557 | 82 | 80 | 12.0 | 21.0 | 0.00 | 0.03 | 0.03 | 79 | 1012.8 |
| 20260504120113 | 83 | 103 | 7.0 | 21.0 | 0.00 | 0.03 | 0.03 | 77 | 1012.4 |
| 20260504110557 | 83 | 111 | 8.0 | 14.0 | 0.00 | 0.03 | 0.03 | 79 | 1012.0 |
| 20260504100555 | 83 | 63 | 10.0 | 20.0 | 0.00 | 0.03 | 0.03 | 77 | 1011.6 |
| 20260504081558 | 84 | 69 | 10.0 | 19.0 | 0.00 | 0.03 | 0.03 | 77 | 1010.8 |
| 20260504081057 | 84 | 86 | 7.0 | 19.0 | 0.00 | 0.03 | 0.03 | 77 | 1010.6 |
| 20260504080557 | 83 | 85 | 11.0 | 19.0 | 0.00 | 0.03 | 0.03 | 77 | 1010.6 |
| 20260504050558 | 85 | 102 | 13.0 | 27.0 | 0.00 | 0.03 | 0.03 | 72 | 1010.2 |
| 20260504050131 | 86 | 89 | 18.0 | 27.0 | 0.00 | 0.03 | 0.03 | 71 | 1010.1 |
| 20260504045557 | 87 | 81 | 13.0 | 26.0 | 0.00 | 0.03 | 0.03 | 72 | 1010.1 |
| 20260504045058 | 87 | 119 | 12.0 | 26.0 | 0.00 | 0.03 | 0.03 | 72 | 1010.1 |
| 20260504044559 | 86 | 77 | 13.0 | 21.0 | 0.00 | 0.03 | 0.03 | 73 | 1010.2 |
| 20260504044059 | 85 | 126 | 10.0 | 22.0 | 0.00 | 0.03 | 0.03 | 75 | 1010.2 |
| 20260504043556 | 85 | 112 | 14.0 | 23.0 | 0.00 | 0.03 | 0.03 | 75 | 1010.3 |
| 20260504043101 | 85 | 105 | 15.0 | 25.0 | 0.00 | 0.03 | 0.03 | 75 | 1010.3 |
| 20260504042558 | 86 | 59 | 16.0 | 25.0 | 0.00 | 0.03 | 0.03 | 72 | 1010.3 |
| 20260504042057 | 87 | 93 | 13.0 | 25.0 | 0.00 | 0.03 | 0.03 | 71 | 1010.3 |
| 20260504041557 | 86 | 102 | 14.0 | 25.0 | 0.00 | 0.03 | 0.03 | 71 | 1010.3 |
| 20260504041058 | 86 | 82 | 14.0 | 25.0 | 0.00 | 0.03 | 0.03 | 71 | 1010.3 |
| 20260504040558 | 87 | 100 | 11.0 | 20.0 | 0.00 | 0.03 | 0.03 | 70 | 1010.4 |
| 20260504040105 | 87 | 82 | 11.0 | 23.0 | 0.00 | 0.03 | 0.03 | 72 | 1010.4 |
| 20260504035558 | 86 | 81 | 16.0 | 23.0 | 0.00 | 0.03 | 0.03 | 72 | 1010.5 |
| 20260504035101 | 87 | 73 | 12.0 | 22.0 | 0.00 | 0.03 | 0.03 | 72 | 1010.5 |
| 20260504034600 | 86 | 88 | 15.0 | 23.0 | 0.00 | 0.03 | 0.03 | 71 | 1010.6 |
| 20260504034056 | 87 | 56 | 11.0 | 23.0 | 0.00 | 0.03 | 0.03 | 72 | 1010.6 |
| 20260504033556 | 86 | 61 | 11.0 | 23.0 | 0.00 | 0.03 | 0.03 | 72 | 1010.7 |
| 20260504033058 | 86 | 105 | 14.0 | 22.0 | 0.00 | 0.03 | 0.03 | 73 | 1010.8 |
| 20260504032559 | 86 | 93 | 13.0 | 25.0 | 0.00 | 0.03 | 0.03 | 72 | 1010.9 |
| 20260504032103 | 86 | 90 | 13.0 | 25.0 | 0.00 | 0.03 | 0.03 | 72 | 1010.9 |
| 20260504031623 | 86 | 94 | 15.0 | 27.0 | 0.00 | 0.03 | 0.03 | 72 | 1011.0 |
| 20260504031100 | 86 | 81 | 11.0 | 27.0 | 0.00 | 0.03 | 0.03 | 73 | 1011.0 |
| 20260504030559 | 85 | 88 | 16.0 | 27.0 | 0.00 | 0.03 | 0.03 | 73 | 1011.0 |
| 20260504030056 | 86 | 76 | 13.0 | 24.0 | 0.00 | 0.03 | 0.03 | 73 | 1011.0 |
| 20260504025559 | -52 | 66 | 13.0 | 24.0 | 0.00 | 0.03 | 0.03 | 1011.2 | |
| 20260504025057 | 86 | 76 | 14.0 | 21.0 | 0.00 | 0.03 | 0.03 | 73 | 1011.3 |
| 20260504024601 | 86 | 51 | 13.0 | 22.0 | 0.00 | 0.03 | 0.03 | 72 | 1011.3 |
| 20260504024055 | 86 | 107 | 9.0 | 23.0 | 0.00 | 0.03 | 0.03 | 72 | 1011.4 |
| 20260504023558 | 86 | 81 | 13.0 | 23.0 | 0.00 | 0.03 | 0.03 | 72 | 1011.6 |
| 20260504023059 | 86 | 86 | 11.0 | 28.0 | 0.00 | 0.03 | 0.03 | 73 | 1011.6 |
| 20260504022559 | 86 | 87 | 14.0 | 28.0 | 0.00 | 0.03 | 0.03 | 72 | 1011.6 |
| 20260504022101 | 86 | 78 | 14.0 | 26.0 | 0.00 | 0.03 | 0.03 | 71 | 1011.6 |
| 20260504021609 | 86 | 96 | 11.0 | 24.0 | 0.00 | 0.03 | 0.03 | 71 | 1011.6 |
| 20260504021101 | 86 | 97 | 12.0 | 24.0 | 0.00 | 0.03 | 0.03 | 72 | 1011.7 |
| 20260504020601 | 86 | 108 | 16.0 | 24.0 | 0.00 | 0.03 | 0.03 | 73 | 1011.6 |
| 20260504020105 | 86 | 67 | 13.0 | 26.0 | 0.00 | 0.03 | 0.03 | 72 | 1011.7 |
| 20260504015556 | 86 | 73 | 13.0 | 26.0 | 0.00 | 0.03 | 0.03 | 73 | 1011.7 |
| 20260504015056 | 86 | 117 | 13.0 | 23.0 | 0.00 | 0.03 | 0.03 | 72 | 1011.9 |
| 20260504014600 | 86 | 110 | 11.0 | 24.0 | 0.00 | 0.03 | 0.03 | 73 | 1011.8 |
| 20260504014055 | 86 | 76 | 12.0 | 28.0 | 0.00 | 0.03 | 0.03 | 73 | 1011.8 |
| 20260504013557 | 86 | 75 | 13.0 | 28.0 | 0.00 | 0.03 | 0.03 | 73 | 1011.9 |
| 20260504013105 | 85 | 55 | 14.0 | 28.0 | 0.00 | 0.03 | 0.03 | 72 | 1011.9 |
| 20260504012559 | 86 | 83 | 12.0 | 26.0 | 0.00 | 0.03 | 0.03 | 73 | 1012.0 |
| 20260504012056 | 86 | 94 | 15.0 | 26.0 | 0.00 | 0.03 | 0.03 | 72 | 1012.1 |
| 20260504011558 | 86 | 77 | 10.0 | 28.0 | 0.00 | 0.03 | 0.03 | 71 | 1012.1 |
| 20260504011055 | 86 | 104 | 16.0 | 28.0 | 0.00 | 0.03 | 0.03 | 70 | 1012.1 |
| 20260504010556 | 87 | 113 | 11.0 | 21.0 | 0.00 | 0.03 | 0.03 | 71 | 1012.1 |
| 20260504010110 | 86 | 90 | 14.0 | 25.0 | 0.00 | 0.03 | 0.03 | 71 | 1012.2 |
| 20260504005555 | 86 | 108 | 13.0 | 25.0 | 0.00 | 0.03 | 0.03 | 72 | 1012.2 |
| 20260504005057 | 86 | 63 | 14.0 | 27.0 | 0.00 | 0.03 | 0.03 | 72 | 1012.2 |
| 20260504004558 | 85 | 92 | 17.0 | 27.0 | 0.00 | 0.03 | 0.03 | 74 | 1012.3 |
| 20260504004057 | 85 | 59 | 13.0 | 24.0 | 0.00 | 0.03 | 0.03 | 74 | 1012.3 |
| 20260504003558 | 86 | 92 | 14.0 | 21.0 | 0.00 | 0.03 | 0.03 | 74 | 1012.3 |
| 20260504003058 | 86 | 75 | 9.0 | 18.0 | 0.00 | 0.03 | 0.03 | 73 | 1012.4 |
| 20260504002557 | 86 | 102 | 7.0 | 18.0 | 0.00 | 0.03 | 0.03 | 74 | 1012.4 |
| 20260504002101 | 86 | 97 | 10.0 | 18.0 | 0.00 | 0.03 | 0.03 | 73 | 1012.4 |
| 20260504001611 | 85 | 123 | 11.0 | 24.0 | 0.00 | 0.03 | 0.03 | 74 | 1012.4 |
| 20260504001056 | 85 | 84 | 14.0 | 24.0 | 0.00 | 0.03 | 0.03 | 74 | 1012.3 |
| 20260504000557 | 85 | 109 | 15.0 | 24.0 | 0.00 | 0.03 | 0.03 | 74 | 1012.4 |
| 20260504000058 | 85 | 102 | 11.0 | 21.0 | 0.00 | 0.03 | 0.03 | 74 | 1012.3 |
| 20260503235557 | 85 | 89 | 12.0 | 20.0 | 0.00 | 0.03 | 0.03 | 74 | 1012.4 |
| 20260503235056 | 85 | 114 | 12.0 | 20.0 | 0.00 | 0.03 | 0.03 | 75 | 1012.3 |
| 20260503234557 | 85 | 82 | 9.0 | 21.0 | 0.00 | 0.03 | 0.03 | 76 | 1012.3 |
| 20260503234057 | 85 | 98 | 11.0 | 21.0 | 0.00 | 0.03 | 0.03 | 75 | 1012.2 |
| 20260503233558 | 85 | 78 | 11.0 | 21.0 | 0.00 | 0.03 | 0.03 | 74 | 1012.2 |
| 20260503233056 | 85 | 94 | 11.0 | 20.0 | 0.00 | 0.03 | 0.03 | 74 | 1012.2 |
| 20260503232557 | 85 | 67 | 12.0 | 20.0 | 0.00 | 0.03 | 0.03 | 74 | 1012.3 |
| 20260503232057 | 85 | 84 | 10.0 | 21.0 | 0.00 | 0.03 | 0.03 | 74 | 1012.3 |
| 20260503231557 | 85 | 87 | 12.0 | 21.0 | 0.00 | 0.03 | 0.03 | 74 | 1012.3 |
| 20260503231059 | 85 | 81 | 11.0 | 19.0 | 0.00 | 0.03 | 0.03 | 73 | 1012.2 |
| 20260503230559 | 85 | 83 | 12.0 | 24.0 | 0.00 | 0.03 | 0.03 | 74 | 1012.2 |
| 20260503225559 | 85 | 92 | 7.0 | 19.0 | 0.00 | 0.03 | 0.03 | 75 | 1012.3 |
| 20260503225102 | 85 | 90 | 9.0 | 23.0 | 0.00 | 0.03 | 0.03 | 75 | 1012.3 |
| 20260503224608 | 85 | 118 | 10.0 | 23.0 | 0.00 | 0.03 | 0.03 | 75 | 1012.3 |
| 20260503224100 | 85 | 98 | 10.0 | 21.0 | 0.00 | 0.03 | 0.03 | 75 | 1012.2 |
| 20260503223558 | 85 | 118 | 12.0 | 21.0 | 0.00 | 0.03 | 0.03 | 75 | 1012.2 |
| 20260503223109 | 85 | 93 | 12.0 | 21.0 | 0.00 | 0.03 | 0.03 | 75 | 1012.1 |
| 20260503222601 | 85 | 81 | 11.0 | 22.0 | 0.00 | 0.03 | 0.03 | 76 | 1012.1 |
| 20260503222057 | 85 | 94 | 12.0 | 22.0 | 0.00 | 0.03 | 0.03 | 75 | 1012.0 |
| 20260503221559 | 85 | 49 | 14.0 | 22.0 | 0.00 | 0.03 | 0.03 | 75 | 1011.9 |
| 20260503221103 | 85 | 95 | 12.0 | 22.0 | 0.00 | 0.03 | 0.03 | 76 | 1012.0 |
| 20260503220559 | 84 | 90 | 15.0 | 22.0 | 0.00 | 0.03 | 0.03 | 76 | 1011.9 |
| 20260503220109 | 84 | 82 | 11.0 | 20.0 | 0.00 | 0.03 | 0.03 | 76 | 1012.0 |
| 20260503215559 | 84 | 95 | 10.0 | 18.0 | 0.00 | 0.03 | 0.03 | 77 | 1011.9 |
| 20260503215100 | 84 | 107 | 11.0 | 19.0 | 0.00 | 0.03 | 0.03 | 77 | 1011.9 |
| 20260503214559 | 84 | 65 | 11.0 | 20.0 | 0.00 | 0.03 | 0.03 | 77 | 1011.8 |
| 20260503214101 | 84 | 115 | 10.0 | 23.0 | 0.00 | 0.03 | 0.03 | 77 | 1011.7 |
| 20260503213600 | 84 | 93 | 12.0 | 23.0 | 0.00 | 0.03 | 0.03 | 78 | 1011.6 |
| 20260503213134 | 84 | 77 | 10.0 | 19.0 | 0.00 | 0.03 | 0.03 | 79 | 1011.5 |
| 20260503212601 | 83 | 68 | 9.0 | 17.0 | 0.00 | 0.03 | 0.03 | 80 | 1011.6 |
| 20260503212101 | 83 | 101 | 8.0 | 18.0 | 0.00 | 0.03 | 0.03 | 79 | 1011.6 |
| 20260503211621 | 83 | 91 | 10.0 | 18.0 | 0.00 | 0.03 | 0.03 | 79 | 1011.5 |
| 20260503211057 | 83 | 81 | 9.0 | 18.0 | 0.00 | 0.03 | 0.03 | 79 | 1011.5 |
| 20260503210559 | 83 | 82 | 5.0 | 16.0 | 0.00 | 0.03 | 0.03 | 80 | 1011.3 |
| 20260503205557 | 82 | 78 | 8.0 | 14.0 | 0.00 | 0.03 | 0.03 | 80 | 1011.1 |
| 20260503205058 | 82 | 84 | 7.0 | 15.0 | 0.00 | 0.03 | 0.03 | 80 | 1011.1 |